Time,TemperatureF,DewpointF,PressureIn,WindDirection,WindDirectionDegrees,WindSpeedMPH,WindSpeedGustMPH,Humidity,HourlyPrecipIn,Conditions,Clouds,dailyrainin,SoftwareType,DateUTC
2013-02-09 00:00:00,35.0,24.8,29.90,WNW,285,11.0,11.0,66,0.00,,,0.00,Wunderground v.1.15,2013-02-09 05:00:00,
2013-02-09 00:05:00,34.8,24.6,29.90,WNW,301,10.0,12.0,66,0.00,,,0.00,Wunderground v.1.15,2013-02-09 05:05:00,
2013-02-09 00:10:00,34.8,24.6,29.90,WNW,287,9.0,14.0,66,0.00,,,0.00,Wunderground v.1.15,2013-02-09 05:10:00,
2013-02-09 00:15:00,34.7,24.5,29.90,NW,325,10.0,14.0,66,0.00,,,0.00,Wunderground v.1.15,2013-02-09 05:15:00,
2013-02-09 00:20:00,34.7,24.5,29.90,WNW,283,11.0,14.0,66,0.00,,,0.00,Wunderground v.1.15,2013-02-09 05:20:00,
2013-02-09 00:30:00,34.5,24.3,29.90,SW,223,12.0,12.0,66,0.00,,,0.00,Wunderground v.1.15,2013-02-09 05:30:00,
2013-02-09 00:35:00,34.6,24.4,29.90,North,355,13.0,13.0,66,0.00,,,0.00,Wunderground v.1.15,2013-02-09 05:35:00,
2013-02-09 00:40:00,34.5,24.3,29.91,WNW,285,14.0,14.0,66,0.00,,,0.00,Wunderground v.1.15,2013-02-09 05:40:00,
2013-02-09 00:45:00,34.6,24.4,29.90,North,360,14.0,14.0,66,0.00,,,0.00,Wunderground v.1.15,2013-02-09 05:45:00,
2013-02-09 00:50:00,34.4,24.2,29.91,WNW,298,15.0,22.0,66,0.00,,,0.00,Wunderground v.1.15,2013-02-09 05:50:00,
2013-02-09 00:55:00,34.4,24.6,29.92,WNW,300,13.0,22.0,67,0.00,,,0.00,Wunderground v.1.15,2013-02-09 05:55:00,
2013-02-09 01:00:00,34.4,24.6,29.92,NW,317,12.0,14.0,67,0.00,,,0.00,Wunderground v.1.15,2013-02-09 06:00:00,
2013-02-09 01:05:00,34.4,24.6,29.92,North,349,12.0,14.0,67,0.00,,,0.00,Wunderground v.1.15,2013-02-09 06:05:00,
2013-02-09 01:10:00,34.4,24.6,29.92,NNW,342,12.0,14.0,67,0.00,,,0.00,Wunderground v.1.15,2013-02-09 06:10:00,
2013-02-09 01:15:00,34.4,24.6,29.92,NNW,330,12.0,15.0,67,0.00,,,0.00,Wunderground v.1.15,2013-02-09 06:15:00,
2013-02-09 01:25:00,34.4,24.6,29.93,WNW,298,12.0,16.0,67,0.00,,,0.00,Wunderground v.1.15,2013-02-09 06:25:00,
2013-02-09 01:30:00,34.3,24.8,29.93,North,355,11.0,11.0,68,0.00,,,0.00,Wunderground v.1.15,2013-02-09 06:30:00,
2013-02-09 01:35:00,34.2,24.7,29.93,North,355,9.0,14.0,68,0.00,,,0.00,Wunderground v.1.15,2013-02-09 06:35:00,
2013-02-09 01:40:00,34.1,24.6,29.94,NW,316,10.0,21.0,68,0.00,,,0.00,Wunderground v.1.15,2013-02-09 06:40:00,
2013-02-09 01:45:00,34.1,24.6,29.94,NW,304,9.0,21.0,68,0.00,,,0.00,Wunderground v.1.15,2013-02-09 06:45:00,
2013-02-09 01:55:00,33.9,24.4,29.95,NNW,338,12.0,12.0,68,0.00,,,0.00,Wunderground v.1.15,2013-02-09 06:55:00,
2013-02-09 02:00:00,33.8,24.4,29.96,NW,310,12.0,26.0,68,0.00,,,0.00,Wunderground v.1.15,2013-02-09 07:00:00,
2013-02-09 02:10:00,33.7,24.3,29.96,NW,314,11.0,11.0,68,0.00,,,0.00,Wunderground v.1.15,2013-02-09 07:10:00,
2013-02-09 02:15:00,33.6,24.5,29.97,NW,318,10.0,14.0,69,0.00,,,0.00,Wunderground v.1.15,2013-02-09 07:15:00,
2013-02-09 02:20:00,33.5,24.4,29.97,WNW,292,10.0,10.0,69,0.00,,,0.00,Wunderground v.1.15,2013-02-09 07:20:00,
2013-02-09 02:25:00,33.4,24.7,29.97,NW,317,10.0,14.0,70,0.00,,,0.00,Wunderground v.1.15,2013-02-09 07:25:00,
2013-02-09 02:35:00,33.2,24.5,29.97,North,355,8.0,14.0,70,0.00,,,0.00,Wunderground v.1.15,2013-02-09 07:35:00,
2013-02-09 02:40:00,33.2,24.8,29.97,NNE,30,7.0,7.0,71,0.00,,,0.00,Wunderground v.1.15,2013-02-09 07:40:00,
2013-02-09 02:45:00,33.1,24.4,29.98,NNW,327,7.0,8.0,70,0.00,,,0.00,Wunderground v.1.15,2013-02-09 07:45:00,
2013-02-09 02:50:00,33.0,24.3,29.98,NNW,336,8.0,14.0,70,0.00,,,0.00,Wunderground v.1.15,2013-02-09 07:50:00,
2013-02-09 03:00:00,32.9,24.2,29.98,NNE,17,8.0,8.0,70,0.00,,,0.00,Wunderground v.1.15,2013-02-09 08:00:00,
2013-02-09 03:05:00,32.8,24.1,29.99,NW,306,8.0,14.0,70,0.00,,,0.00,Wunderground v.1.15,2013-02-09 08:05:00,
2013-02-09 03:10:00,32.6,23.9,29.98,NNW,336,7.0,7.0,70,0.00,,,0.00,Wunderground v.1.15,2013-02-09 08:10:00,
2013-02-09 03:15:00,32.6,24.2,29.98,WNW,302,7.0,14.0,71,0.00,,,0.00,Wunderground v.1.15,2013-02-09 08:15:00,
2013-02-09 03:20:00,32.4,24.0,29.99,NE,34,8.0,14.0,71,0.00,,,0.00,Wunderground v.1.15,2013-02-09 08:20:00,
2013-02-09 03:30:00,32.2,23.5,29.98,NW,309,10.0,10.0,70,0.00,,,0.00,Wunderground v.1.15,2013-02-09 08:30:00,
2013-02-09 03:35:00,32.2,23.5,29.99,NW,322,11.0,11.0,70,0.00,,,0.00,Wunderground v.1.15,2013-02-09 08:35:00,
2013-02-09 03:40:00,32.1,23.4,29.99,West,281,11.0,11.0,70,0.00,,,0.00,Wunderground v.1.15,2013-02-09 08:40:00,
2013-02-09 03:45:00,32.0,23.7,30.00,NW,317,8.0,14.0,71,0.00,,,0.00,Wunderground v.1.15,2013-02-09 08:45:00,
2013-02-09 03:50:00,32.0,23.7,30.00,WNW,285,8.0,14.0,71,0.00,,,0.00,Wunderground v.1.15,2013-02-09 08:50:00,
2013-02-09 04:00:00,31.8,23.5,30.00,WNW,292,9.0,14.0,71,0.00,,,0.00,Wunderground v.1.15,2013-02-09 09:00:00,
2013-02-09 04:05:00,31.7,23.4,30.00,NNW,344,8.0,14.0,71,0.00,,,0.00,Wunderground v.1.15,2013-02-09 09:05:00,
2013-02-09 04:10:00,31.7,23.4,30.00,WNW,289,8.0,14.0,71,0.00,,,0.00,Wunderground v.1.15,2013-02-09 09:10:00,
2013-02-09 04:15:00,31.7,23.4,30.00,West,269,8.0,14.0,71,0.00,,,0.00,Wunderground v.1.15,2013-02-09 09:15:00,
2013-02-09 04:20:00,31.7,23.0,30.01,NNW,341,10.0,14.0,70,0.00,,,0.00,Wunderground v.1.15,2013-02-09 09:20:00,
2013-02-09 04:30:00,31.7,22.3,30.01,NNW,328,11.0,14.0,68,0.00,,,0.00,Wunderground v.1.15,2013-02-09 09:30:00,
2013-02-09 04:35:00,31.7,22.3,30.02,NW,321,13.0,17.0,68,0.00,,,0.00,Wunderground v.1.15,2013-02-09 09:35:00,
2013-02-09 04:40:00,31.6,21.9,30.02,NW,311,12.0,19.0,67,0.00,,,0.00,Wunderground v.1.15,2013-02-09 09:40:00,
2013-02-09 04:45:00,31.4,21.7,30.02,WNW,283,10.0,19.0,67,0.00,,,0.00,Wunderground v.1.15,2013-02-09 09:45:00,
2013-02-09 04:55:00,31.3,21.6,30.03,NNE,24,12.0,15.0,67,0.00,,,0.00,Wunderground v.1.15,2013-02-09 09:55:00,
2013-02-09 05:00:00,31.1,21.1,30.03,NW,312,8.0,8.0,66,0.00,,,0.00,Wunderground v.1.15,2013-02-09 10:00:00,
2013-02-09 05:05:00,31.0,21.0,30.03,NNW,348,9.0,16.0,66,0.00,,,0.00,Wunderground v.1.15,2013-02-09 10:05:00,
2013-02-09 05:10:00,30.8,20.8,30.03,NW,317,9.0,16.0,66,0.00,,,0.00,Wunderground v.1.15,2013-02-09 10:10:00,
2013-02-09 05:20:00,30.6,20.9,30.04,North,11,10.0,10.0,67,0.00,,,0.00,Wunderground v.1.15,2013-02-09 10:20:00,
2013-02-09 05:25:00,30.5,20.8,30.04,NNW,329,10.0,14.0,67,0.00,,,0.00,Wunderground v.1.15,2013-02-09 10:25:00,
2013-02-09 05:30:00,30.5,20.8,30.05,NW,313,8.0,14.0,67,0.00,,,0.00,Wunderground v.1.15,2013-02-09 10:30:00,
2013-02-09 05:35:00,30.4,20.7,30.05,NNW,329,8.0,14.0,67,0.00,,,0.00,Wunderground v.1.15,2013-02-09 10:35:00,
2013-02-09 05:40:00,30.3,20.6,30.06,NW,322,9.0,14.0,67,0.00,,,0.00,Wunderground v.1.15,2013-02-09 10:40:00,
2013-02-09 05:50:00,30.3,20.6,30.06,North,5,10.0,19.0,67,0.00,,,0.00,Wunderground v.1.15,2013-02-09 10:50:00,
2013-02-09 05:55:00,30.2,20.6,30.06,NNW,331,10.0,19.0,67,0.00,,,0.00,Wunderground v.1.15,2013-02-09 10:55:00,
2013-02-09 06:00:00,30.2,20.6,30.06,North,360,9.0,14.0,67,0.00,,,0.00,Wunderground v.1.15,2013-02-09 11:00:00,
2013-02-09 06:05:00,30.1,20.5,30.06,WNW,284,8.0,14.0,67,0.00,,,0.00,Wunderground v.1.15,2013-02-09 11:05:00,
2013-02-09 06:10:00,30.1,20.5,30.07,NNW,330,10.0,10.0,67,0.00,,,0.00,Wunderground v.1.15,2013-02-09 11:10:00,
2013-02-09 06:20:00,29.9,20.3,30.08,NW,319,11.0,14.0,67,0.00,,,0.00,Wunderground v.1.15,2013-02-09 11:20:00,
2013-02-09 06:25:00,29.9,20.3,30.08,NNW,344,12.0,14.0,67,0.00,,,0.00,Wunderground v.1.15,2013-02-09 11:25:00,
2013-02-09 06:30:00,29.8,20.2,30.08,NW,313,11.0,11.0,67,0.00,,,0.00,Wunderground v.1.15,2013-02-09 11:30:00,
2013-02-09 06:35:00,29.7,20.4,30.08,North,360,10.0,14.0,68,0.00,,,0.00,Wunderground v.1.15,2013-02-09 11:35:00,
2013-02-09 06:40:00,29.6,20.0,30.08,WNW,284,10.0,14.0,67,0.00,,,0.00,Wunderground v.1.15,2013-02-09 11:40:00,
2013-02-09 06:50:00,29.4,20.1,30.09,North,360,10.0,14.0,68,0.00,,,0.00,Wunderground v.1.15,2013-02-09 11:50:00,
2013-02-09 06:55:00,29.4,20.1,30.09,WNW,291,10.0,14.0,68,0.00,,,0.00,Wunderground v.1.15,2013-02-09 11:55:00,
2013-02-09 07:00:00,29.2,19.9,30.10,NNW,337,8.0,8.0,68,0.00,,,0.00,Wunderground v.1.15,2013-02-09 12:00:00,
2013-02-09 07:10:00,29.1,19.5,30.10,NW,320,9.0,18.0,67,0.00,,,0.00,Wunderground v.1.15,2013-02-09 12:10:00,
2013-02-09 07:15:00,29.0,19.4,30.11,NW,313,9.0,18.0,67,0.00,,,0.00,Wunderground v.1.15,2013-02-09 12:15:00,
2013-02-09 07:20:00,29.0,19.4,30.11,WNW,302,10.0,15.0,67,0.00,,,0.00,Wunderground v.1.15,2013-02-09 12:20:00,
2013-02-09 07:25:00,29.0,19.8,30.12,NNW,330,11.0,15.0,68,0.00,,,0.00,Wunderground v.1.15,2013-02-09 12:25:00,
2013-02-09 07:30:00,29.0,19.8,30.12,West,281,13.0,20.0,68,0.00,,,0.00,Wunderground v.1.15,2013-02-09 12:30:00,
2013-02-09 07:40:00,28.9,19.7,30.12,North,5,12.0,12.0,68,0.00,,,0.00,Wunderground v.1.15,2013-02-09 12:40:00,
2013-02-09 07:45:00,28.9,19.7,30.13,NNW,334,10.0,14.0,68,0.00,,,0.00,Wunderground v.1.15,2013-02-09 12:45:00,
2013-02-09 07:50:00,28.9,19.3,30.13,West,268,9.0,9.0,67,0.00,,,0.00,Wunderground v.1.15,2013-02-09 12:50:00,
2013-02-09 07:55:00,28.9,19.3,30.14,WNW,299,11.0,11.0,67,0.00,,,0.00,Wunderground v.1.15,2013-02-09 12:55:00,
2013-02-09 08:00:00,28.9,19.3,30.14,WNW,299,10.0,14.0,67,0.00,,,0.00,Wunderground v.1.15,2013-02-09 13:00:00,
2013-02-09 08:10:00,28.9,19.0,30.15,WNW,296,11.0,11.0,66,0.00,,,0.00,Wunderground v.1.15,2013-02-09 13:10:00,
2013-02-09 08:15:00,29.0,19.1,30.15,North,360,10.0,14.0,66,0.00,,,0.00,Wunderground v.1.15,2013-02-09 13:15:00,
2013-02-09 08:20:00,29.1,19.2,30.16,NNW,327,9.0,9.0,66,0.00,,,0.00,Wunderground v.1.15,2013-02-09 13:20:00,
2013-02-09 08:25:00,29.2,19.2,30.16,NNW,342,9.0,14.0,66,0.00,,,0.00,Wunderground v.1.15,2013-02-09 13:25:00,
2013-02-09 08:30:00,29.3,19.3,30.16,WNW,288,9.0,14.0,66,0.00,,,0.00,Wunderground v.1.15,2013-02-09 13:30:00,
2013-02-09 08:40:00,29.6,19.6,30.17,NW,311,7.0,14.0,66,0.00,,,0.00,Wunderground v.1.15,2013-02-09 13:40:00,
2013-02-09 08:45:00,29.6,19.3,30.17,NW,313,10.0,17.0,65,0.00,,,0.00,Wunderground v.1.15,2013-02-09 13:45:00,
2013-02-09 08:50:00,29.7,19.7,30.17,NW,304,11.0,11.0,66,0.00,,,0.00,Wunderground v.1.15,2013-02-09 13:50:00,
2013-02-09 08:55:00,29.9,19.6,30.18,NW,322,9.0,14.0,65,0.00,,,0.00,Wunderground v.1.15,2013-02-09 13:55:00,
2013-02-09 09:00:00,30.0,19.7,30.18,NW,313,10.0,18.0,65,0.00,,,0.00,Wunderground v.1.15,2013-02-09 14:00:00,
2013-02-09 09:10:00,30.0,19.3,30.18,NW,317,10.0,10.0,64,0.00,,,0.00,Wunderground v.1.15,2013-02-09 14:10:00,
2013-02-09 09:15:00,30.1,19.7,30.18,NNE,26,10.0,14.0,65,0.00,,,0.00,Wunderground v.1.15,2013-02-09 14:15:00,
2013-02-09 09:20:00,30.1,19.7,30.19,ENE,64,8.0,14.0,65,0.00,,,0.00,Wunderground v.1.15,2013-02-09 14:20:00,
2013-02-09 09:30:00,30.3,19.6,30.19,NW,318,10.0,17.0,64,0.00,,,0.00,Wunderground v.1.15,2013-02-09 14:30:00,
2013-02-09 09:35:00,30.3,19.6,30.18,North,351,11.0,17.0,64,0.00,,,0.00,Wunderground v.1.15,2013-02-09 14:35:00,
2013-02-09 09:40:00,30.4,20.0,30.18,NNW,335,9.0,19.0,65,0.00,,,0.00,Wunderground v.1.15,2013-02-09 14:40:00,
2013-02-09 09:45:00,30.6,20.2,30.19,NW,310,9.0,19.0,65,0.00,,,0.00,Wunderground v.1.15,2013-02-09 14:45:00,
2013-02-09 09:50:00,30.8,20.0,30.19,WSW,253,9.0,9.0,64,0.00,,,0.00,Wunderground v.1.15,2013-02-09 14:50:00,
2013-02-09 10:00:00,31.3,20.5,30.19,North,355,7.0,7.0,64,0.00,,,0.00,Wunderground v.1.15,2013-02-09 15:00:00,
2013-02-09 10:05:00,31.4,20.2,30.19,NNW,346,8.0,8.0,63,0.00,,,0.00,Wunderground v.1.15,2013-02-09 15:05:00,
2013-02-09 10:10:00,31.5,20.7,30.20,West,272,8.0,8.0,64,0.00,,,0.00,Wunderground v.1.15,2013-02-09 15:10:00,
2013-02-09 10:15:00,31.6,20.8,30.20,North,360,7.0,14.0,64,0.00,,,0.00,Wunderground v.1.15,2013-02-09 15:15:00,
2013-02-09 10:20:00,31.7,20.9,30.20,NNW,334,7.0,14.0,64,0.00,,,0.00,Wunderground v.1.15,2013-02-09 15:20:00,
2013-02-09 10:30:00,32.0,20.8,30.20,West,265,7.0,7.0,63,0.00,,,0.00,Wunderground v.1.15,2013-02-09 15:30:00,
2013-02-09 10:35:00,32.5,21.3,30.20,West,277,7.0,13.0,63,0.00,,,0.00,Wunderground v.1.15,2013-02-09 15:35:00,
2013-02-09 10:40:00,32.4,20.8,30.20,West,270,8.0,17.0,62,0.00,,,0.00,Wunderground v.1.15,2013-02-09 15:40:00,
2013-02-09 10:45:00,32.6,21.0,30.20,NNW,331,8.0,17.0,62,0.00,,,0.00,Wunderground v.1.15,2013-02-09 15:45:00,
2013-02-09 10:50:00,32.6,21.0,30.20,West,281,8.0,20.0,62,0.00,,,0.00,Wunderground v.1.15,2013-02-09 15:50:00,
2013-02-09 11:00:00,32.9,20.9,30.21,NW,325,9.0,9.0,61,0.00,,,0.00,Wunderground v.1.15,2013-02-09 16:00:00,
2013-02-09 11:05:00,33.4,21.4,30.22,North,355,9.0,14.0,61,0.00,,,0.00,Wunderground v.1.15,2013-02-09 16:05:00,
2013-02-09 11:10:00,33.9,21.9,30.22,North,5,5.0,5.0,61,0.00,,,0.00,Wunderground v.1.15,2013-02-09 16:10:00,
2013-02-09 11:15:00,34.1,22.0,30.22,ENE,61,5.0,14.0,61,0.00,,,0.00,Wunderground v.1.15,2013-02-09 16:15:00,
2013-02-09 11:20:00,34.4,21.5,30.22,NW,308,5.0,15.0,59,0.00,,,0.00,Wunderground v.1.15,2013-02-09 16:20:00,
2013-02-09 11:30:00,33.7,21.3,30.23,WNW,300,9.0,9.0,60,0.00,,,0.00,Wunderground v.1.15,2013-02-09 16:30:00,
2013-02-09 11:35:00,34.0,21.6,30.22,West,278,7.0,14.0,60,0.00,,,0.00,Wunderground v.1.15,2013-02-09 16:35:00,
2013-02-09 11:40:00,34.4,21.5,30.22,NNW,333,5.0,14.0,59,0.00,,,0.00,Wunderground v.1.15,2013-02-09 16:40:00,
2013-02-09 11:50:00,34.7,21.8,30.22,NNW,338,6.0,14.0,59,0.00,,,0.00,Wunderground v.1.15,2013-02-09 16:50:00,
2013-02-09 11:55:00,34.8,21.5,30.22,North,355,6.0,14.0,58,0.00,,,0.00,Wunderground v.1.15,2013-02-09 16:55:00,
2013-02-09 12:00:00,35.2,22.3,30.23,NW,304,6.0,6.0,59,0.00,,,0.00,Wunderground v.1.15,2013-02-09 17:00:00,
2013-02-09 12:05:00,34.7,21.0,30.23,NW,319,8.0,8.0,57,0.00,,,0.00,Wunderground v.1.15,2013-02-09 17:05:00,
2013-02-09 12:10:00,34.4,21.1,30.22,NW,310,9.0,9.0,58,0.00,,,0.00,Wunderground v.1.15,2013-02-09 17:10:00,
2013-02-09 12:20:00,34.8,21.9,30.23,NNW,344,8.0,14.0,59,0.00,,,0.00,Wunderground v.1.15,2013-02-09 17:20:00,
2013-02-09 12:25:00,35.1,21.4,30.22,WNW,302,8.0,14.0,57,0.00,,,0.00,Wunderground v.1.15,2013-02-09 17:25:00,
2013-02-09 12:30:00,35.1,21.4,30.22,NW,315,9.0,14.0,57,0.00,,,0.00,Wunderground v.1.15,2013-02-09 17:30:00,
2013-02-09 12:35:00,35.0,21.7,30.22,North,355,10.0,14.0,58,0.00,,,0.00,Wunderground v.1.15,2013-02-09 17:35:00,
2013-02-09 12:40:00,35.4,21.7,30.21,NW,306,10.0,10.0,57,0.00,,,0.00,Wunderground v.1.15,2013-02-09 17:40:00,
2013-02-09 12:50:00,35.3,22.0,30.22,WNW,284,9.0,15.0,58,0.00,,,0.00,Wunderground v.1.15,2013-02-09 17:50:00,
2013-02-09 12:55:00,35.9,21.7,30.23,NNW,348,8.0,15.0,56,0.00,,,0.00,Wunderground v.1.15,2013-02-09 17:55:00,
2013-02-09 13:00:00,36.1,21.9,30.22,North,5,7.0,7.0,56,0.00,,,0.00,Wunderground v.1.15,2013-02-09 18:00:00,
2013-02-09 13:05:00,36.4,21.8,30.22,NNW,327,6.0,14.0,55,0.00,,,0.00,Wunderground v.1.15,2013-02-09 18:05:00,
2013-02-09 13:10:00,36.8,22.6,30.22,North,360,6.0,6.0,56,0.00,,,0.00,Wunderground v.1.15,2013-02-09 18:10:00,
2013-02-09 13:20:00,36.9,21.8,30.21,North,11,8.0,8.0,54,0.00,,,0.00,Wunderground v.1.15,2013-02-09 18:20:00,
2013-02-09 13:25:00,36.9,22.2,30.21,NNW,333,8.0,11.0,55,0.00,,,0.00,Wunderground v.1.15,2013-02-09 18:25:00,
2013-02-09 13:30:00,37.4,22.3,30.21,North,5,7.0,7.0,54,0.00,,,0.00,Wunderground v.1.15,2013-02-09 18:30:00,
2013-02-09 13:35:00,37.8,22.6,30.22,West,275,6.0,14.0,54,0.00,,,0.00,Wunderground v.1.15,2013-02-09 18:35:00,
2013-02-09 13:40:00,38.0,22.4,30.21,NNW,327,6.0,14.0,53,0.00,,,0.00,Wunderground v.1.15,2013-02-09 18:40:00,
2013-02-09 13:50:00,38.0,22.4,30.22,WNW,293,7.0,16.0,53,0.00,,,0.00,Wunderground v.1.15,2013-02-09 18:50:00,
2013-02-09 13:55:00,38.1,22.5,30.22,NW,319,7.0,16.0,53,0.00,,,0.00,Wunderground v.1.15,2013-02-09 18:55:00,
2013-02-09 14:00:00,38.2,22.1,30.22,NW,316,7.0,7.0,52,0.00,,,0.00,Wunderground v.1.15,2013-02-09 19:00:00,
2013-02-09 14:10:00,38.1,22.0,30.22,NW,310,9.0,14.0,52,0.00,,,0.00,Wunderground v.1.15,2013-02-09 19:10:00,
2013-02-09 14:15:00,38.0,22.4,30.22,NNE,26,9.0,14.0,53,0.00,,,0.00,Wunderground v.1.15,2013-02-09 19:15:00,
2013-02-09 14:20:00,38.2,22.6,30.22,North,355,8.0,14.0,53,0.00,,,0.00,Wunderground v.1.15,2013-02-09 19:20:00,
2013-02-09 14:25:00,38.3,22.2,30.23,West,281,7.0,14.0,52,0.00,,,0.00,Wunderground v.1.15,2013-02-09 19:25:00,
2013-02-09 14:30:00,38.8,23.1,30.23,North,11,7.0,7.0,53,0.00,,,0.00,Wunderground v.1.15,2013-02-09 19:30:00,
2013-02-09 14:40:00,38.4,22.3,30.23,NNW,338,8.0,8.0,52,0.00,,,0.00,Wunderground v.1.15,2013-02-09 19:40:00,
2013-02-09 14:45:00,38.5,22.4,30.24,NW,304,7.0,14.0,52,0.00,,,0.00,Wunderground v.1.15,2013-02-09 19:45:00,
2013-02-09 14:50:00,38.7,22.1,30.24,NW,304,7.0,7.0,51,0.00,,,0.00,Wunderground v.1.15,2013-02-09 19:50:00,
2013-02-09 14:55:00,38.6,22.5,30.24,NW,311,8.0,8.0,52,0.00,,,0.00,Wunderground v.1.15,2013-02-09 19:55:00,
2013-02-09 15:05:00,38.9,22.8,30.25,NW,314,7.0,9.0,52,0.00,,,0.00,Wunderground v.1.15,2013-02-09 20:05:00,
2013-02-09 15:10:00,38.9,22.8,30.25,NNW,327,7.0,7.0,52,0.00,,,0.00,Wunderground v.1.15,2013-02-09 20:10:00,
2013-02-09 15:15:00,39.1,22.5,30.25,NW,325,7.0,14.0,51,0.00,,,0.00,Wunderground v.1.15,2013-02-09 20:15:00,
2013-02-09 15:20:00,38.7,21.6,30.25,North,11,7.0,7.0,50,0.00,,,0.00,Wunderground v.1.15,2013-02-09 20:20:00,
2013-02-09 15:30:00,39.0,22.4,30.25,NE,53,7.0,7.0,51,0.00,,,0.00,Wunderground v.1.15,2013-02-09 20:30:00,
2013-02-09 15:35:00,38.9,21.8,30.25,West,279,6.0,14.0,50,0.00,,,0.00,Wunderground v.1.15,2013-02-09 20:35:00,
2013-02-09 15:40:00,38.8,21.7,30.25,NW,323,7.0,14.0,50,0.00,,,0.00,Wunderground v.1.15,2013-02-09 20:40:00,
2013-02-09 15:45:00,39.2,22.1,30.25,North,5,6.0,14.0,50,0.00,,,0.00,Wunderground v.1.15,2013-02-09 20:45:00,
2013-02-09 15:55:00,39.5,22.4,30.25,WNW,303,4.0,14.0,50,0.00,,,0.00,Wunderground v.1.15,2013-02-09 20:55:00,
2013-02-09 16:00:00,39.7,22.6,30.26,NW,304,5.0,14.0,50,0.00,,,0.00,Wunderground v.1.15,2013-02-09 21:00:00,
2013-02-09 16:05:00,39.4,21.8,30.26,NW,314,5.0,14.0,49,0.00,,,0.00,Wunderground v.1.15,2013-02-09 21:05:00,
2013-02-09 16:10:00,39.5,22.4,30.26,NNW,329,5.0,14.0,50,0.00,,,0.00,Wunderground v.1.15,2013-02-09 21:10:00,
2013-02-09 16:20:00,39.2,21.6,30.26,WSW,252,6.0,6.0,49,0.00,,,0.00,Wunderground v.1.15,2013-02-09 21:20:00,
2013-02-09 16:25:00,39.4,21.3,30.26,WNW,294,5.0,7.0,48,0.00,,,0.00,Wunderground v.1.15,2013-02-09 21:25:00,
2013-02-09 16:30:00,39.1,21.5,30.27,NW,314,6.0,6.0,49,0.00,,,0.00,Wunderground v.1.15,2013-02-09 21:30:00,
2013-02-09 16:35:00,39.0,21.4,30.27,NW,311,7.0,7.0,49,0.00,,,0.00,Wunderground v.1.15,2013-02-09 21:35:00,
2013-02-09 16:40:00,39.0,21.4,30.26,WNW,293,6.0,14.0,49,0.00,,,0.00,Wunderground v.1.15,2013-02-09 21:40:00,
2013-02-09 16:50:00,39.2,21.1,30.27,NNW,338,4.0,14.0,48,0.00,,,0.00,Wunderground v.1.15,2013-02-09 21:50:00,
2013-02-09 16:55:00,39.0,20.5,30.27,WNW,289,4.0,14.0,47,0.00,,,0.00,Wunderground v.1.15,2013-02-09 21:55:00,
2013-02-09 17:00:00,38.7,20.2,30.27,NW,311,5.0,5.0,47,0.00,,,0.00,Wunderground v.1.15,2013-02-09 22:00:00,
2013-02-09 17:05:00,38.6,20.6,30.28,NNW,341,4.0,14.0,48,0.00,,,0.00,Wunderground v.1.15,2013-02-09 22:05:00,
2013-02-09 17:15:00,38.1,20.1,30.28,NW,307,4.0,14.0,48,0.00,,,0.00,Wunderground v.1.15,2013-02-09 22:15:00,
2013-02-09 17:20:00,38.0,19.5,30.28,NNE,28,4.0,14.0,47,0.00,,,0.00,Wunderground v.1.15,2013-02-09 22:20:00,
2013-02-09 17:25:00,37.7,19.8,30.28,NNW,344,4.0,14.0,48,0.00,,,0.00,Wunderground v.1.15,2013-02-09 22:25:00,
2013-02-09 17:30:00,37.6,19.2,30.29,NNW,331,3.0,3.0,47,0.00,,,0.00,Wunderground v.1.15,2013-02-09 22:30:00,
2013-02-09 17:40:00,37.2,18.8,30.29,NNW,333,2.0,14.0,47,0.00,,,0.00,Wunderground v.1.15,2013-02-09 22:40:00,
2013-02-09 17:45:00,37.1,19.7,30.29,NNW,348,2.0,14.0,49,0.00,,,0.00,Wunderground v.1.15,2013-02-09 22:45:00,
2013-02-09 17:50:00,37.0,19.1,30.29,NNE,24,2.0,2.0,48,0.00,,,0.00,Wunderground v.1.15,2013-02-09 22:50:00,
2013-02-09 17:55:00,36.9,19.5,30.30,North,350,2.0,14.0,49,0.00,,,0.00,Wunderground v.1.15,2013-02-09 22:55:00,
2013-02-09 18:05:00,36.7,19.3,30.30,NNW,329,2.0,14.0,49,0.00,,,0.00,Wunderground v.1.15,2013-02-09 23:05:00,
2013-02-09 18:10:00,36.5,19.6,30.30,NW,325,1.0,1.0,50,0.00,,,0.00,Wunderground v.1.15,2013-02-09 23:10:00,
2013-02-09 18:15:00,36.4,19.5,30.30,NW,323,1.0,14.0,50,0.00,,,0.00,Wunderground v.1.15,2013-02-09 23:15:00,
2013-02-09 18:20:00,36.3,19.4,30.31,NW,315,1.0,1.0,50,0.00,,,0.00,Wunderground v.1.15,2013-02-09 23:20:00,
2013-02-09 18:30:00,36.1,20.2,30.32,NW,313,1.0,1.0,52,0.00,,,0.00,Wunderground v.1.15,2013-02-09 23:30:00,
2013-02-09 18:35:00,36.0,20.5,30.32,NW,313,0.0,14.0,53,0.00,,,0.00,Wunderground v.1.15,2013-02-09 23:35:00,
2013-02-09 18:40:00,35.9,20.0,30.32,NW,306,1.0,1.0,52,0.00,,,0.00,Wunderground v.1.15,2013-02-09 23:40:00,
2013-02-09 18:45:00,35.9,20.4,30.32,West,261,2.0,2.0,53,0.00,,,0.00,Wunderground v.1.15,2013-02-09 23:45:00,
2013-02-09 18:55:00,35.8,19.9,30.32,NW,308,2.0,4.0,52,0.00,,,0.00,Wunderground v.1.15,2013-02-09 23:55:00,
2013-02-09 19:00:00,35.8,20.3,30.32,NNW,345,2.0,2.0,53,0.00,,,0.00,Wunderground v.1.15,2013-02-10 00:00:00,
2013-02-09 19:05:00,35.6,19.7,30.32,NNW,346,1.0,14.0,52,0.00,,,0.00,Wunderground v.1.15,2013-02-10 00:05:00,
2013-02-09 19:10:00,35.5,19.6,30.32,NNW,327,1.0,14.0,52,0.00,,,0.00,Wunderground v.1.15,2013-02-10 00:10:00,
2013-02-09 19:15:00,35.4,19.5,30.32,WNW,298,2.0,14.0,52,0.00,,,0.00,Wunderground v.1.15,2013-02-10 00:15:00,
2013-02-09 19:25:00,35.2,19.8,30.32,North,5,3.0,10.0,53,0.00,,,0.00,Wunderground v.1.15,2013-02-10 00:25:00,
2013-02-09 19:30:00,35.1,19.2,30.32,North,5,3.0,3.0,52,0.00,,,0.00,Wunderground v.1.15,2013-02-10 00:30:00,
2013-02-09 19:35:00,35.1,19.2,30.33,NNW,328,3.0,5.0,52,0.00,,,0.00,Wunderground v.1.15,2013-02-10 00:35:00,
2013-02-09 19:40:00,35.1,19.2,30.33,NNW,337,3.0,14.0,52,0.00,,,0.00,Wunderground v.1.15,2013-02-10 00:40:00,
2013-02-09 19:45:00,35.0,19.1,30.34,WNW,288,3.0,14.0,52,0.00,,,0.00,Wunderground v.1.15,2013-02-10 00:45:00,
2013-02-09 19:55:00,34.9,19.5,30.33,NW,319,2.0,14.0,53,0.00,,,0.00,Wunderground v.1.15,2013-02-10 00:55:00,
2013-02-09 20:00:00,34.8,19.4,30.33,NNW,330,2.0,2.0,53,0.00,,,0.00,Wunderground v.1.15,2013-02-10 01:00:00,
2013-02-09 20:05:00,34.7,19.3,30.33,NNW,344,3.0,3.0,53,0.00,,,0.00,Wunderground v.1.15,2013-02-10 01:05:00,
2013-02-09 20:15:00,34.4,19.0,30.33,NW,307,2.0,14.0,53,0.00,,,0.00,Wunderground v.1.15,2013-02-10 01:15:00,
2013-02-09 20:20:00,34.4,19.0,30.33,NNW,327,2.0,14.0,53,0.00,,,0.00,Wunderground v.1.15,2013-02-10 01:20:00,
2013-02-09 20:25:00,34.4,19.5,30.33,NNW,328,2.0,14.0,54,0.00,,,0.00,Wunderground v.1.15,2013-02-10 01:25:00,
2013-02-09 20:30:00,34.3,19.4,30.33,NNW,327,2.0,14.0,54,0.00,,,0.00,Wunderground v.1.15,2013-02-10 01:30:00,
2013-02-09 20:40:00,34.0,19.1,30.34,NW,307,2.0,2.0,54,0.00,,,0.00,Wunderground v.1.15,2013-02-10 01:40:00,
2013-02-09 20:45:00,34.0,19.1,30.34,NW,306,2.0,4.0,54,0.00,,,0.00,Wunderground v.1.15,2013-02-10 01:45:00,
2013-02-09 20:50:00,34.0,19.1,30.34,NNW,343,2.0,2.0,54,0.00,,,0.00,Wunderground v.1.15,2013-02-10 01:50:00,
2013-02-09 20:55:00,34.0,19.1,30.34,NW,306,2.0,3.0,54,0.00,,,0.00,Wunderground v.1.15,2013-02-10 01:55:00,
2013-02-09 21:00:00,33.9,19.0,30.34,NW,306,2.0,2.0,54,0.00,,,0.00,Wunderground v.1.15,2013-02-10 02:00:00,
2013-02-09 21:10:00,33.6,19.1,30.34,NNW,348,2.0,14.0,55,0.00,,,0.00,Wunderground v.1.15,2013-02-10 02:10:00,
2013-02-09 21:15:00,33.5,19.5,30.34,WNW,299,2.0,14.0,56,0.00,,,0.00,Wunderground v.1.15,2013-02-10 02:15:00,
2013-02-09 21:20:00,33.4,18.9,30.34,NNW,340,2.0,14.0,55,0.00,,,0.00,Wunderground v.1.15,2013-02-10 02:20:00,
2013-02-09 21:25:00,33.3,19.3,30.34,NNW,330,3.0,14.0,56,0.00,,,0.00,Wunderground v.1.15,2013-02-10 02:25:00,
2013-02-09 21:30:00,33.2,18.8,30.35,NNW,347,3.0,14.0,55,0.00,,,0.00,Wunderground v.1.15,2013-02-10 02:30:00,
2013-02-09 21:40:00,33.1,19.1,30.34,NW,325,1.0,14.0,56,0.00,,,0.00,Wunderground v.1.15,2013-02-10 02:40:00,
2013-02-09 21:45:00,33.0,19.0,30.35,NNW,333,2.0,14.0,56,0.00,,,0.00,Wunderground v.1.15,2013-02-10 02:45:00,
2013-02-09 21:50:00,32.9,19.3,30.35,North,360,2.0,2.0,57,0.00,,,0.00,Wunderground v.1.15,2013-02-10 02:50:00,
2013-02-09 21:55:00,32.8,19.2,30.35,NNW,346,1.0,14.0,57,0.00,,,0.00,Wunderground v.1.15,2013-02-10 02:55:00,
2013-02-09 22:05:00,32.5,18.9,30.35,NNW,346,2.0,14.0,57,0.00,,,0.00,Wunderground v.1.15,2013-02-10 03:05:00,
2013-02-09 22:10:00,32.5,18.9,30.35,North,351,2.0,2.0,57,0.00,,,0.00,Wunderground v.1.15,2013-02-10 03:10:00,
2013-02-09 22:15:00,32.4,18.8,30.35,NNW,346,1.0,3.0,57,0.00,,,0.00,Wunderground v.1.15,2013-02-10 03:15:00,
2013-02-09 22:20:00,32.3,19.2,30.36,NNW,346,1.0,14.0,58,0.00,,,0.00,Wunderground v.1.15,2013-02-10 03:20:00,
2013-02-09 22:30:00,32.1,19.0,30.36,North,360,0.0,14.0,58,0.00,,,0.00,Wunderground v.1.15,2013-02-10 03:30:00,
2013-02-09 22:35:00,32.0,19.7,30.36,North,355,0.0,14.0,60,0.00,,,0.00,Wunderground v.1.15,2013-02-10 03:35:00,
2013-02-09 22:40:00,31.9,19.2,30.36,North,355,0.0,14.0,59,0.00,,,0.00,Wunderground v.1.15,2013-02-10 03:40:00,
2013-02-09 22:45:00,31.8,19.1,30.36,North,355,0.0,14.0,59,0.00,,,0.00,Wunderground v.1.15,2013-02-10 03:45:00,
2013-02-09 22:55:00,31.5,19.2,30.36,North,355,0.0,14.0,60,0.00,,,0.00,Wunderground v.1.15,2013-02-10 03:55:00,
2013-02-09 23:00:00,31.5,19.2,30.37,North,355,1.0,1.0,60,0.00,,,0.00,Wunderground v.1.15,2013-02-10 04:00:00,
2013-02-09 23:05:00,31.5,18.8,30.37,North,355,1.0,14.0,59,0.00,,,0.00,Wunderground v.1.15,2013-02-10 04:05:00,
2013-02-09 23:10:00,31.4,19.1,30.37,North,355,0.0,14.0,60,0.00,,,0.00,Wunderground v.1.15,2013-02-10 04:10:00,
2013-02-09 23:15:00,31.5,19.6,30.37,North,355,0.0,14.0,61,0.00,,,0.00,Wunderground v.1.15,2013-02-10 04:15:00,
2013-02-09 23:25:00,31.3,18.6,30.37,North,355,0.0,14.0,59,0.00,,,0.00,Wunderground v.1.15,2013-02-10 04:25:00,
2013-02-09 23:30:00,31.4,19.9,30.38,North,355,0.0,14.0,62,0.00,,,0.00,Wunderground v.1.15,2013-02-10 04:30:00,
2013-02-09 23:35:00,31.3,19.0,30.38,North,355,0.0,14.0,60,0.00,,,0.00,Wunderground v.1.15,2013-02-10 04:35:00,
2013-02-09 23:40:00,31.2,20.1,30.38,North,355,0.0,14.0,63,0.00,,,0.00,Wunderground v.1.15,2013-02-10 04:40:00,
2013-02-09 23:50:00,30.9,19.4,30.38,North,355,0.0,14.0,62,0.00,,,0.00,Wunderground v.1.15,2013-02-10 04:50:00,
2013-02-09 23:55:00,30.8,18.9,30.38,North,355,0.0,14.0,61,0.00,,,0.00,Wunderground v.1.15,2013-02-10 04:55:00,